EW6005 Weather Reports


Display with metric or nautical units.
time (UTC)temp
F
wind
direction
speed
MPH
gust
MPH
rain 1hr
in
rain 24hr
in
rain mn
in
humidity
%
barometer
mb
20260507082910 65 5 1.0 3.0 0.00 0.00 0.00 91 998.9
20260507082408 65 302 1.0 4.0 0.00 0.00 0.00 91 999.2
20260507081907 65 16 1.0 4.0 0.00 0.00 0.00 91 998.7
20260507081628 65 38 1.0 6.0 0.00 0.00 0.00 91 998.6
20260507080903 65 318 1.0 6.0 0.00 0.00 0.00 91 999.0
20260507080402 65 50 1.0 4.0 0.00 0.00 0.00 91 999.3
20260507075901 66 281 0.0 4.0 0.00 0.00 0.00 91 999.2
20260507075402 66 24 0.0 3.0 0.00 0.00 0.00 91 998.9
20260507074858 65 24 1.0 3.0 0.00 0.00 0.00 90 999.0
20260507074357 65 0 1.0 3.0 0.00 0.00 0.00 90 999.2
20260507074341 65 14 1.0 3.0 0.00 0.00 0.00 90 999.2
20260507073352 65 341 1.0 3.0 0.00 0.00 0.00 90 999.5
20260507072849 66 315 1.0 4.0 0.00 0.00 0.00 90 999.1
20260507072349 66 331 1.0 4.0 0.00 0.00 0.00 90 999.2
20260507071849 66 5 1.0 6.0 0.00 0.00 0.00 90 999.1
20260507071347 66 344 1.0 6.0 0.00 0.00 0.00 89 999.1
20260507071332 66 0 1.0 3.0 0.00 0.00 0.00 89 999.3
20260507070346 66 323 1.0 2.0 0.00 0.00 0.00 89 999.6
20260507065846 66 344 1.0 4.0 0.00 0.00 0.00 89 999.6
20260507065346 67 303 1.0 4.0 0.00 0.00 0.00 89 999.7
20260507064842 67 16 1.0 3.0 0.00 0.00 0.00 88 999.5
20260507064342 67 57 1.0 6.0 0.00 0.00 0.00 88 999.6
20260507063842 67 311 1.0 6.0 0.00 0.00 0.00 88 999.5
20260507063559 67 10 1.0 3.0 0.00 0.00 0.00 88 999.5
20260507062843 67 11 1.0 2.0 0.00 0.00 0.00 88 999.8
20260507062342 67 0 1.0 3.0 0.00 0.00 0.00 88 999.2
20260507061842 67 0 1.0 3.0 0.00 0.00 0.00 87 999.4
20260507061342 67 17 1.0 4.0 0.00 0.00 0.00 87 999.6
20260507060843 67 344 1.0 4.0 0.00 0.00 0.00 87 999.6
20260507060342 67 0 1.0 8.0 0.00 0.00 0.00 87 999.3
20260507055842 67 344 1.0 8.0 0.00 0.00 0.00 87 999.0
20260507055342 67 9 1.0 2.0 0.00 0.00 0.00 87 999.1
20260507054842 67 9 1.0 4.0 0.00 0.00 0.00 87 999.3
20260507054343 67 342 1.0 4.0 0.00 0.00 0.00 87 999.5
20260507053843 67 20 1.0 3.0 0.00 0.00 0.00 87 999.3
20260507053343 67 9 1.0 3.0 0.00 0.00 0.00 87 999.4
20260507052842 67 337 1.0 3.0 0.00 0.00 0.00 87 999.4
20260507052342 67 17 1.0 6.0 0.00 0.00 0.00 86 999.2
20260507052104 67 26 1.0 6.0 0.00 0.00 0.00 86 999.3
20260507051344 67 304 1.0 5.0 0.00 0.00 0.00 87 999.2
20260507050840 67 23 1.0 4.0 0.00 0.00 0.00 86 999.2
20260507050829 67 287 1.0 4.0 0.00 0.00 0.00 86 999.2
20260507045604 68 15 1.0 4.0 0.00 0.00 0.00 86 999.1
20260507044839 68 300 1.0 4.0 0.00 0.00 0.00 86 999.1
20260507044340 68 309 1.0 4.0 0.00 0.00 0.00 86 999.1
20260507043839 68 37 1.0 3.0 0.00 0.00 0.00 85 999.1
20260507043338 68 320 1.0 3.0 0.00 0.00 0.00 85 999.1
20260507042839 69 340 1.0 4.0 0.00 0.00 0.00 86 999.0
20260507042339 69 327 1.0 4.0 0.00 0.00 0.00 86 999.0
20260507041838 69 9 1.0 4.0 0.00 0.00 0.00 86 999.0
20260507041339 69 345 1.0 7.0 0.00 0.00 0.00 86 998.9
20260507040840 69 32 1.0 7.0 0.00 0.00 0.00 86 999.0
20260507040339 69 9 1.0 3.0 0.00 0.00 0.00 86 999.0
20260507040316 69 18 1.0 2.0 0.00 0.00 0.00 86 998.9
20260507035338 69 327 1.0 3.0 0.00 0.00 0.00 85 999.1
20260507034839 69 12 1.0 4.0 0.00 0.00 0.00 86 999.1
20260507034554 69 344 1.0 4.0 0.00 0.00 0.00 85 999.1
20260507033839 69 295 1.0 4.0 0.00 0.00 0.00 85 999.1
20260507033603 70 258 1.0 4.0 0.00 0.00 0.00 86 999.1
20260507032838 70 345 0.0 2.0 0.00 0.00 0.00 86 998.7
20260507032608 70 0 1.0 3.0 0.00 0.00 0.00 85 998.5
20260507031839 70 0 1.0 3.0 0.00 0.00 0.00 85 998.5
20260507031338 70 309 1.0 3.0 0.00 0.00 0.00 85 998.6
20260507030839 70 345 1.0 3.0 0.00 0.00 0.00 85 998.4
20260507030336 70 339 1.0 4.0 0.00 0.00 0.00 86 998.2
20260507025837 70 345 1.0 4.0 0.00 0.00 0.00 86 998.0
20260507025551 70 13 1.0 2.0 0.00 0.00 0.00 86 997.8
20260507024835 71 332 1.0 2.0 0.00 0.00 0.00 86 997.7
20260507024333 71 341 0.0 2.0 0.00 0.00 0.00 86 997.7
20260507023832 71 280 0.0 2.0 0.00 0.00 0.00 86 997.5
20260507023332 71 326 0.0 3.0 0.00 0.00 0.00 85 997.5
20260507022829 71 16 1.0 3.0 0.00 0.00 0.00 86 997.3
20260507022819 71 0 1.0 4.0 0.00 0.00 0.00 85 997.2
20260507021826 71 333 1.0 4.0 0.00 0.00 0.00 85 997.0
20260507021325 71 42 1.0 3.0 0.00 0.00 0.00 85 997.0
20260507020825 71 322 1.0 2.0 0.00 0.00 0.00 85 997.0
20260507020324 72 317 1.0 2.0 0.00 0.00 0.00 86 996.8
20260507015823 72 0 1.0 2.0 0.00 0.00 0.00 86 996.8
20260507015320 72 16 1.0 2.0 0.00 0.00 0.00 85 996.7
20260507014821 72 17 1.0 2.0 0.00 0.00 0.00 85 996.6
20260507014318 72 0 0.0 2.0 0.00 0.00 0.00 85 996.6
20260507014037 72 0 0.0 3.0 0.00 0.00 0.00 85 996.5
20260507013318 73 0 1.0 3.0 0.00 0.00 0.00 85 996.3
20260507012815 73 0 1.0 3.0 0.00 0.00 0.00 85 996.2
20260507012532 73 0 1.0 3.0 0.00 0.00 0.00 84 996.3
20260507011810 73 0 1.0 3.0 0.00 0.00 0.00 85 996.1
20260507011311 73 0 1.0 3.0 0.00 0.00 0.00 85 996.1
20260507010808 74 0 1.0 3.0 0.00 0.00 0.00 84 995.9
20260507010308 74 0 1.0 3.0 0.00 0.00 0.00 85 996.0
20260507005809 74 0 0.0 3.0 0.00 0.00 0.00 85 996.0
20260507005306 74 0 0.0 1.0 0.00 0.00 0.00 85 995.9
20260507004807 75 0 0.0 3.0 0.00 0.00 0.00 85 995.8
20260507004307 75 0 1.0 3.0 0.00 0.00 0.00 85 995.7
20260507003806 75 0 1.0 3.0 0.00 0.00 0.00 85 995.6
20260507003758 75 0 1.0 3.0 0.00 0.00 0.00 85 995.5
20260507002803 76 0 1.0 3.0 0.00 0.00 0.00 86 995.4
20260507002305 76 0 1.0 2.0 0.00 0.00 0.00 85 995.3
20260507001801 76 0 1.0 4.0 0.00 0.00 0.00 85 995.2
20260507001258 76 0 1.0 4.0 0.00 0.00 0.00 85 995.2
20260507000758 76 0 0.0 2.0 0.00 0.00 0.00 85 995.2
20260507000300 76 0 1.0 2.0 0.00 0.00 0.00 85 995.1
20260506235757 77 0 1.0 3.0 0.00 0.00 0.00 84 995.2
20260506235526 77 0 2.0 4.0 0.00 0.00 0.00 84 995.2
20260506234755 77 0 2.0 4.0 0.00 0.00 0.00 83 995.1
20260506234256 78 0 1.0 4.0 0.00 0.00 0.00 83 995.1
20260506233756 78 0 2.0 4.0 0.00 0.00 0.00 83 995.1
20260506233255 79 0 2.0 4.0 0.00 0.00 0.00 82 995.1
20260506232757 80 0 2.0 5.0 0.00 0.00 0.00 81 994.9
20260506232255 81 0 2.0 5.0 0.00 0.00 0.00 80 994.8
20260506231756 83 318 1.0 4.0 0.00 0.00 0.00 81 994.6
20260506231254 84 0 0.0 4.0 0.00 0.00 0.00 86 994.4
20260506230755 84 0 0.0 0.0 0.00 0.00 0.00 87 994.1
20260506230256 84 0 0.0 0.0 0.00 0.00 0.00 86 994.1
20260506230016 84 0 0.0 0.0 0.00 0.00 0.00 86 994.2
20260506225512 84 0 0.0 0.0 0.00 0.00 0.00 85 994.2
20260506224755 85 0 0.0 0.0 0.00 0.00 0.00 86 994.2
20260506224254 85 0 0.0 0.0 0.00 0.00 0.00 85 994.1
20260506223754 85 0 0.0 0.0 0.00 0.00 0.00 85 994.1
20260506223743 85 0 0.0 0.0 0.00 0.00 0.00 85 994.0
20260506222754 85 0 0.0 0.0 0.00 0.00 0.00 85 994.0
20260506222254 85 0 0.0 0.0 0.00 0.00 0.00 85 993.9
20260506221755 85 0 0.0 0.0 0.00 0.00 0.00 85 993.9
20260506221254 85 0 0.0 0.0 0.00 0.00 0.00 85 993.9
20260506220754 85 0 0.0 1.0 0.00 0.00 0.00 85 993.8
20260506220254 85 0 0.0 1.0 0.00 0.00 0.00 85 993.9
20260506215755 85 0 0.0 1.0 0.00 0.00 0.00 85 993.9
20260506215254 85 0 0.0 1.0 0.00 0.00 0.00 84 993.9
20260506214754 85 0 0.0 0.0 0.00 0.00 0.00 84 993.9
20260506214253 85 0 0.0 1.0 0.00 0.00 0.00 84 994.0
20260506213754 85 0 0.0 1.0 0.00 0.00 0.00 84 994.0
20260506213251 85 0 0.0 2.0 0.00 0.00 0.00 84 994.0
20260506212750 85 0 0.0 2.0 0.00 0.00 0.00 84 994.0
20260506212250 85 0 0.0 0.0 0.00 0.00 0.00 84 994.0
20260506211751 85 0 0.0 2.0 0.00 0.00 0.00 84 994.0
20260506211250 85 0 0.0 2.0 0.00 0.00 0.00 84 994.0
20260506210751 85 0 0.0 1.0 0.00 0.00 0.00 85 994.0
20260506210514 85 0 0.0 2.0 0.00 0.00 0.00 85 994.0
20260506205752 85 0 1.0 4.0 0.00 0.00 0.00 85 994.2
20260506205251 85 0 1.0 4.0 0.00 0.00 0.00 85 994.4
20260506204750 84 0 0.0 3.0 0.00 0.00 0.00 85 994.3
20260506204250 84 0 0.0 1.0 0.00 0.00 0.00 86 994.2
20260506203751 84 0 0.0 0.0 0.00 0.00 0.00 86 994.3
20260506203250 84 0 0.0 0.0 0.00 0.00 0.00 87 994.3
20260506202750 83 0 0.0 0.0 0.00 0.00 0.00 88 994.4
20260506202251 83 0 0.0 0.0 0.00 0.00 0.00 88 994.4
20260506201749 83 0 0.0 0.0 0.00 0.00 0.00 88 994.5
20260506201250 82 0 0.0 0.0 0.00 0.00 0.00 89 994.5
20260506200747 82 0 0.0 0.0 0.00 0.00 0.00 90 994.6
20260506200242 82 0 0.0 0.0 0.00 0.00 0.00 90 994.7
20260506195742 81 0 0.0 0.0 0.00 0.00 0.00 90 994.8
20260506195242 81 0 0.0 0.0 0.00 0.00 0.00 90 994.9
20260506195002 81 0 0.0 0.0 0.00 0.00 0.00 90 995.0
20260506194242 81 0 0.0 0.0 0.00 0.00 0.00 90 994.9
20260506193742 81 0 0.0 0.0 0.00 0.00 0.00 91 995.0
20260506193242 80 0 0.0 2.0 0.00 0.00 0.00 91 994.9
20260506192742 80 0 0.0 2.0 0.00 0.00 0.00 91 995.0
20260506192242 80 0 0.0 1.0 0.00 0.00 0.00 92 995.0
20260506191742 80 0 0.0 1.0 0.00 0.00 0.00 91 995.0
20260506191504 80 0 0.0 1.0 0.00 0.00 0.00 91 995.1
20260506190742 80 0 0.0 1.0 0.00 0.00 0.00 91 995.2
20260506190242 80 0 0.0 1.0 0.00 0.00 0.00 90 995.2
20260506185742 80 0 0.0 2.0 0.00 0.00 0.00 90 995.1
20260506185241 80 0 0.0 2.0 0.00 0.00 0.00 90 995.2
20260506184743 81 0 0.0 2.0 0.00 0.00 0.00 89 995.2
20260506184242 81 0 0.0 2.0 0.00 0.00 0.00 89 995.2
20260506184006 81 0 0.0 2.0 0.00 0.00 0.00 88 995.3
20260506183238 82 0 0.0 2.0 0.00 0.00 0.00 88 995.4
20260506183007 82 0 1.0 2.0 0.00 0.00 0.00 88 995.5
20260506182238 82 0 0.0 2.0 0.00 0.00 0.00 88 995.5
20260506181737 82 0 0.0 1.0 0.00 0.00 0.00 88 995.7
20260506181238 82 0 0.0 1.0 0.00 0.00 0.00 88 995.8
20260506180738 82 0 0.0 1.0 0.00 0.00 0.00 88 995.8
20260506180238 82 0 0.0 2.0 0.00 0.00 0.00 88 996.0
20260506180012 82 0 0.0 2.0 0.00 0.00 0.00 88 996.1
20260506175238 82 0 0.0 1.0 0.00 0.00 0.00 88 996.2
20260506174737 82 0 0.0 2.0 0.00 0.00 0.00 88 996.3
20260506174238 82 19 0.0 2.0 0.00 0.00 0.00 88 996.5
20260506173739 82 0 0.0 1.0 0.00 0.00 0.00 88 996.5
20260506173459 82 0 0.0 1.0 0.00 0.00 0.00 88 996.6
20260506172738 82 0 0.0 2.0 0.00 0.00 0.00 88 996.7
20260506172237 82 194 0.0 2.0 0.00 0.00 0.00 88 996.6
20260506171735 82 194 0.0 2.0 0.00 0.00 0.00 87 996.7
20260506171233 81 195 0.0 1.0 0.00 0.00 0.00 88 996.6
20260506170735 81 195 0.0 1.0 0.00 0.00 0.00 88 996.7
20260506170232 81 195 0.0 1.0 0.00 0.00 0.00 88 996.8
20260506165729 81 194 0.0 0.0 0.00 0.00 0.00 89 996.8
20260506165228 81 194 0.0 0.0 0.00 0.00 0.00 89 996.8
20260506164727 81 194 0.0 1.0 0.00 0.00 0.00 88 996.8
20260506164226 81 194 0.0 3.0 0.00 0.00 0.00 89 996.8
20260506163726 81 194 1.0 4.0 0.00 0.00 0.00 88 996.7
20260506163223 81 176 1.0 4.0 0.00 0.00 0.00 88 996.5
20260506162722 81 209 0.0 4.0 0.00 0.00 0.00 88 996.5
20260506162219 81 0 0.0 3.0 0.00 0.00 0.00 89 996.4
20260506161719 81 200 0.0 3.0 0.00 0.00 0.00 89 996.2
20260506161218 81 0 0.0 1.0 0.00 0.00 0.00 89 996.2
20260506160717 81 0 0.0 1.0 0.00 0.00 0.00 89 996.3
20260506160216 80 0 0.0 1.0 0.00 0.00 0.00 89 996.3
20260506155715 80 0 0.0 1.0 0.00 0.00 0.00 89 996.1
20260506155209 80 0 0.0 0.0 0.00 0.00 0.00 89 996.1
20260506154711 80 86 0.0 0.0 0.00 0.00 0.00 90 996.0
20260506154207 80 86 0.0 1.0 0.00 0.00 0.00 89 996.0
20260506153706 80 86 0.0 1.0 0.00 0.00 0.00 90 996.0
20260506153204 80 11 0.0 1.0 0.00 0.00 0.00 90 995.9
20260506152702 80 87 0.0 1.0 0.00 0.00 0.00 90 996.0
20260506152201 80 99 0.0 1.0 0.00 0.00 0.00 90 996.1
20260506151657 80 99 0.0 1.0 0.00 0.00 0.00 90 996.0
20260506151157 80 52 0.0 1.0 0.00 0.00 0.00 90 996.1
20260506150657 80 49 0.0 1.0 0.00 0.00 0.00 91 996.1
20260506150155 80 211 0.0 3.0 0.00 0.00 0.00 91 995.9
20260506145655 79 214 1.0 3.0 0.00 0.00 0.00 90 995.7
20260506145416 79 136 0.0 2.0 0.00 0.00 0.00 91 995.7
20260506144651 79 56 0.0 1.0 0.00 0.00 0.00 91 995.7
20260506144149 79 189 0.0 2.0 0.00 0.00 0.00 92 995.7
20260506143649 79 189 0.0 2.0 0.00 0.00 0.00 92 995.6
20260506143146 79 189 0.0 2.0 0.00 0.00 0.00 92 995.5
20260506142645 78 310 0.0 2.0 0.00 0.00 0.00 92 995.4
20260506142141 78 235 1.0 2.0 0.00 0.00 0.00 92 995.4
20260506141638 78 192 0.0 2.0 0.00 0.00 0.00 92 995.4
20260506141356 78 192 0.0 2.0 0.00 0.00 0.00 93 995.5
20260506140902 78 125 0.0 0.0 0.00 0.00 0.00 93 995.4
20260506140138 78 125 0.0 0.0 0.00 0.00 0.00 93 995.5
20260506135637 78 125 0.0 0.0 0.00 0.00 0.00 93 995.5
20260506135137 78 0 0.0 0.0 0.00 0.00 0.00 93 995.5
20260506134635 77 207 0.0 0.0 0.00 0.00 0.00 93 995.6
20260506134133 77 207 0.0 0.0 0.00 0.00 0.00 93 995.7
20260506133633 77 207 0.0 0.0 0.00 0.00 0.00 94 995.6
20260506133129 77 208 0.0 0.0 0.00 0.00 0.00 94 995.7
20260506132630 77 208 0.0 0.0 0.00 0.00 0.00 94 995.8
20260506132131 77 208 0.0 0.0 0.00 0.00 0.00 94 995.7
20260506131850 77 207 0.0 0.0 0.00 0.00 0.00 94 995.7
20260506131130 76 0 0.0 0.0 0.00 0.00 0.00 94 995.7
20260506130629 76 208 0.0 0.0 0.00 0.00 0.00 94 995.8
20260506130129 76 0 0.0 0.0 0.00 0.00 0.00 94 995.7
20260506125627 76 0 0.0 0.0 0.00 0.00 0.00 93 995.6
20260506125352 76 0 0.0 0.0 0.00 0.00 0.00 94 995.5
20260506125103 76 0 0.0 0.0 0.00 0.00 0.00 94 995.4
20260506124122 76 0 0.0 0.0 0.00 0.00 0.00 93 995.4
20260506123621 76 0 0.0 0.0 0.00 0.00 0.00 93 995.4
20260506123122 76 208 0.0 0.0 0.00 0.00 0.00 93 995.4
20260506122622 76 0 0.0 0.0 0.00 0.00 0.00 94 995.3
20260506122121 76 0 0.0 0.0 0.00 0.00 0.00 94 995.2
20260506121622 76 0 0.0 0.0 0.00 0.00 0.00 93 995.3
20260506121121 76 0 0.0 0.0 0.00 0.00 0.00 93 995.3
20260506120623 76 0 0.0 0.0 0.00 0.00 0.00 93 995.2
20260506120121 76 0 0.0 0.0 0.00 0.00 0.00 93 995.1
20260506115621 76 0 0.0 0.0 0.00 0.00 0.00 93 995.1
20260506115121 76 0 0.0 0.0 0.00 0.00 0.00 93 995.1
20260506114621 76 0 0.0 0.0 0.00 0.00 0.00 93 995.0
20260506114122 76 0 0.0 0.0 0.00 0.00 0.00 93 994.9
20260506113621 76 0 0.0 0.0 0.00 0.00 0.00 93 995.0
20260506113121 76 0 0.0 0.0 0.00 0.00 0.00 93 995.0
20260506112843 76 0 0.0 0.0 0.00 0.00 0.00 92 994.9
20260506112121 76 0 0.0 0.0 0.00 0.00 0.00 92 994.9
20260506111840 76 0 0.0 0.0 0.00 0.00 0.00 92 994.9
20260506111121 76 0 0.0 2.0 0.00 0.00 0.00 92 994.8
20260506110621 76 0 0.0 2.0 0.00 0.00 0.00 92 994.7
20260506110604 76 0 0.0 1.0 0.00 0.00 0.00 92 994.6
20260506105621 76 0 0.0 0.0 0.00 0.00 0.00 92 994.4
20260506105121 76 0 0.0 3.0 0.00 0.00 0.00 92 994.3
20260506104621 76 0 1.0 3.0 0.00 0.00 0.00 92 994.2
20260506104122 77 0 1.0 3.0 0.00 0.00 0.00 92 994.2
20260506103618 77 0 1.0 5.0 0.00 0.00 0.00 92 994.1
20260506103117 77 0 2.0 5.0 0.00 0.00 0.00 92 994.0
20260506102618 77 0 1.0 4.0 0.00 0.00 0.00 92 994.0
20260506102349 77 0 1.0 4.0 0.00 0.00 0.00 92 994.0
20260506101617 77 0 2.0 8.0 0.00 0.00 0.00 92 994.1
20260506101116 77 0 2.0 8.0 0.00 0.00 0.00 92 994.0
20260506100617 77 0 1.0 6.0 0.00 0.00 0.00 92 994.1
20260506100118 77 0 2.0 5.0 0.00 0.00 0.00 92 994.1
20260506095618 77 0 2.0 6.0 0.00 0.00 0.00 92 994.1
20260506095339 77 0 1.0 6.0 0.00 0.00 0.00 92 994.0
20260506094618 77 0 1.0 4.0 0.00 0.00 0.00 92 993.9
20260506094532 76 360 1.0 4.0 0.00 0.00 0.00 92 1001.8
20260506094114 77 0 1.0 4.0 0.00 0.00 0.00 92 993.8
20260506094049 77 0 1.0 5.0 0.00 0.00 0.00 92 993.7
20260506093558 77 0 2.0 8.0 0.00 0.00 0.00 92 993.6
20260506092615 77 0 2.0 8.0 0.00 0.00 0.00 92 993.7
20260506092116 77 0 2.0 6.0 0.00 0.00 0.00 92 993.7
20260506091611 77 0 2.0 8.0 0.00 0.00 0.00 92 993.7
20260506091110 77 0 3.0 8.0 0.00 0.00 0.00 92 993.7
20260506090612 77 0 2.0 5.0 0.00 0.00 0.00 92 993.7
20260506090111 77 0 2.0 4.0 0.00 0.00 0.00 92 993.7
20260506085612 77 0 2.0 5.0 0.00 0.00 0.00 92 993.7
20260506085111 77 0 2.0 6.0 0.00 0.00 0.00 92 993.7
20260506084611 77 188 2.0 8.0 0.00 0.00 0.00 91 993.7
20260506084111 77 146 3.0 8.0 0.00 0.00 0.00 91 993.5
20260506083611 77 0 2.0 6.0 0.00 0.00 0.00 91 993.6
20260506083111 77 0 2.0 6.0 0.00 0.00 0.00 91 993.8